Location: Norton
(51.3000°N, 0.8167°E)
Time: 13:24:58
(UTC+00:00)

USA 306 - Pass Details

Date: 03 March 2021
Orbit: 564 x 577 km, 54.0° (Epoch: 10 April)

Event Time Altitude Azimuth Distance (km) Brightness Sun altitude
Rises 19:58:22 0° 283° (WNW) 2,784 7.9 -22.0°
Reaches altitude 10° 20:00:39 10° 287° (WNW) 1,882 6.7 -22.3°
Maximum altitude 20:04:54 64° 9° (N) 637 3.0 -23.0°
Enters shadow 20:05:05 63° 25° (NNE) 641 3.0 -23.0°
